Appleton, MN

1:17 AM CDT on July 25, 2017 (GMT -0500)
Appleton Municipal

Weather History for KAQP - March, 2013

Change the Weather History Date:

Monday, March 4, 2013

  Actual Average Record
Temperature  
Mean Temperature 26 °F -  
Max Temperature 28 °F 24 °F 48 °F (2017)
Min Temperature 24 °F 9 °F -9 °F (2015)
Degree Days  
Heating Degree Days 39    
Moisture  
Dew Point 24 °F    
Average Humidity 89    
Maximum Humidity 100    
Minimum Humidity 80    
Precipitation  
Precipitation 0.00 in - - ()
Sea Level Pressure  
Sea Level Pressure 29.86 in    
Wind  
Wind Speed 17 mph (SE)    
Max Wind Speed 22 mph    
Max Gust Speed 29 mph    
Visibility 4 miles    
Events Snow    
Averages and records for this station are not official NWS values.
T = Trace of Precipitation, MM = Missing Value Source: NWS Daily Summary

Daily Weather History Graph

Daily Weather History Graph

Search for Another Location

Airport or City:

Trip Planner

Search our weather history database for the weather conditions in past years. The results will help you decide how hot, cold, wet, or windy it might be!

Date:

Astronomy

Mar. 04, 2013 Rise Set
Actual Time 6:56 AM CST 6:15 PM CST
Civil Twilight 6:26 AM CST 6:45 PM CST
Nautical Twilight 5:52 AM CST 7:19 PM CST
Astronomical Twilight 5:18 AM CST 7:53 PM CST
Moon 1:18 AM CST (3/4) 10:46 AM CST (3/4)
Length of Visible Light 12h 18m
Length of Day
11h 19m
Waning Gibbous, 52% of the Moon is Illuminated
Mar 4
Waning Gibbous
Mar 4
Last Quarter
Mar 11
New
Mar 19
First Quarter
Mar 27
Full

Hourly Weather History & Observations

Time (CST) Temp. Windchill Dew Point Humidity Pressure Visibility Wind Dir Wind Speed Gust Speed Precip Events Conditions
12:13 AM 24.8 °F 11.9 °F 21.2 °F 86% 29.84 in 2.5 mi ESE 16.1 mph 23.0 mph N/A Snow Light Snow
12:34 AM 24.8 °F 11.1 °F 23.0 °F 93% 29.83 in 2.0 mi ESE 18.4 mph - N/A Snow Light Snow
12:54 AM 24.8 °F 10.7 °F 21.2 °F 86% 29.83 in 2.5 mi ESE 19.6 mph - N/A Snow Light Snow
1:14 AM 24.8 °F 10.0 °F 21.2 °F 86% 29.83 in 1.5 mi ESE 21.9 mph 26.5 mph N/A Snow Light Snow
1:53 AM 24.8 °F 11.1 °F 21.2 °F 86% 29.82 in 2.0 mi ESE 18.4 mph 26.5 mph N/A Snow Light Snow
2:14 AM 24.8 °F 10.7 °F 21.2 °F 86% 29.82 in 1.5 mi ESE 19.6 mph 27.6 mph N/A Snow Light Snow
2:33 AM 24.8 °F 10.7 °F 21.2 °F 86% 29.81 in 1.0 mi ESE 19.6 mph 26.5 mph N/A Snow Snow
2:53 AM 24.8 °F 11.1 °F 23.0 °F 93% 29.81 in 1.5 mi ESE 18.4 mph 26.5 mph N/A Snow Light Snow
3:33 AM 24.8 °F 11.1 °F 21.2 °F 86% 29.80 in 5.0 mi ESE 18.4 mph 28.8 mph N/A Snow Light Snow
3:53 AM 26.6 °F 13.1 °F 23.0 °F 86% 29.81 in 7.0 mi ESE 19.6 mph 26.5 mph N/A   Overcast
4:13 AM 24.8 °F 10.7 °F 23.0 °F 93% 29.81 in 10.0 mi ESE 19.6 mph 27.6 mph N/A   Overcast
4:33 AM 24.8 °F 11.5 °F 21.2 °F 86% 29.81 in 10.0 mi ESE 17.3 mph 25.3 mph N/A   Overcast
4:54 AM 26.6 °F 13.8 °F 21.2 °F 80% 29.82 in 10.0 mi SE 17.3 mph 24.2 mph N/A   Overcast
5:13 AM 26.6 °F 13.4 °F 21.2 °F 80% 29.82 in 5.0 mi SE 18.4 mph 23.0 mph N/A Snow Light Snow
5:33 AM 26.6 °F 13.8 °F 21.2 °F 80% 29.82 in 3.0 mi SE 17.3 mph 25.3 mph N/A Snow Light Snow
6:13 AM 26.6 °F 13.1 °F 23.0 °F 86% 29.82 in 3.0 mi ESE 19.6 mph 24.2 mph N/A Snow Light Snow
6:34 AM 26.6 °F 13.1 °F 23.0 °F 86% 29.83 in 4.0 mi SE 19.6 mph 24.2 mph N/A Snow Light Snow
6:53 AM 26.6 °F 13.4 °F 23.0 °F 86% 29.83 in 4.0 mi SE 18.4 mph 21.9 mph N/A Snow Light Snow
7:13 AM 26.6 °F 13.4 °F 23.0 °F 86% 29.83 in 7.0 mi SE 18.4 mph - N/A Snow Light Snow
7:34 AM 26.6 °F 13.8 °F 21.2 °F 80% 29.83 in 7.0 mi SE 17.3 mph 25.3 mph N/A Snow Light Snow
7:53 AM 26.6 °F 13.4 °F 21.2 °F 80% 29.83 in 10.0 mi ESE 18.4 mph 24.2 mph N/A   Overcast
8:14 AM 26.6 °F 13.1 °F 21.2 °F 80% 29.83 in 10.0 mi ESE 19.6 mph 23.0 mph N/A   Overcast
8:34 AM 26.6 °F 13.4 °F 21.2 °F 80% 29.84 in 7.0 mi SE 18.4 mph 25.3 mph N/A   Overcast
8:54 AM 26.6 °F 13.4 °F 21.2 °F 80% 29.83 in 7.0 mi SE 18.4 mph 25.3 mph N/A   Overcast
9:13 AM 26.6 °F 12.7 °F 21.2 °F 80% 29.83 in 5.0 mi SE 20.7 mph 24.2 mph N/A   Overcast
9:33 AM 26.6 °F 14.7 °F 23.0 °F 86% 29.83 in 5.0 mi SE 15.0 mph - N/A   Overcast
9:53 AM 26.6 °F 13.8 °F 23.0 °F 86% 29.84 in 4.0 mi SE 17.3 mph 26.5 mph N/A   Overcast
10:13 AM 26.6 °F 12.7 °F 23.0 °F 86% 29.84 in 3.0 mi SE 20.7 mph 25.3 mph N/A   Overcast
10:33 AM 26.6 °F 14.7 °F 24.8 °F 93% 29.85 in 2.5 mi SE 15.0 mph - N/A   Overcast
10:53 AM 26.6 °F 13.1 °F 24.8 °F 93% 29.85 in 2.5 mi SE 19.6 mph - N/A   Overcast
11:13 AM 26.6 °F 14.7 °F 24.8 °F 93% 29.85 in 2.5 mi SE 15.0 mph 20.7 mph N/A   Overcast
11:33 AM 26.6 °F 14.7 °F 24.8 °F 93% 29.85 in 2.5 mi SE 15.0 mph 21.9 mph N/A   Overcast
11:53 AM 26.6 °F 14.3 °F 24.8 °F 93% 29.86 in 2.0 mi SE 16.1 mph - N/A   Overcast
12:13 PM 26.6 °F 14.3 °F 24.8 °F 93% 29.87 in 1.5 mi SE 16.1 mph 21.9 mph N/A Snow Light Snow
12:53 PM 26.6 °F 14.7 °F 24.8 °F 93% 29.86 in 1.0 mi SE 15.0 mph - N/A Snow Light Snow
1:13 PM 26.6 °F 14.3 °F 24.8 °F 93% 29.86 in 1.5 mi SE 16.1 mph 20.7 mph N/A Snow Light Snow
1:33 PM 26.6 °F 14.7 °F 24.8 °F 93% 29.85 in 1.8 mi SE 15.0 mph - N/A Snow Light Snow
1:53 PM 28.4 °F 16.2 °F 24.8 °F 86% 29.84 in 1.2 mi SE 17.3 mph - N/A Snow Light Snow
2:14 PM 28.4 °F 16.6 °F 24.8 °F 86% 29.85 in 2.0 mi SE 16.1 mph - N/A Snow Light Snow
2:33 PM 28.4 °F 18.0 °F 24.8 °F 86% 29.86 in 2.5 mi SE 12.7 mph - N/A Snow Light Snow
2:53 PM 28.4 °F 17.0 °F 24.8 °F 86% 29.86 in 2.5 mi SE 15.0 mph - N/A Snow Light Snow
3:13 PM 28.4 °F 17.5 °F 24.8 °F 86% 29.86 in 3.0 mi ESE 13.8 mph - N/A Snow Light Snow
3:34 PM 28.4 °F 18.0 °F 24.8 °F 86% 29.86 in 0.8 mi ESE 12.7 mph - N/A Snow Light Snow
3:53 PM 28.4 °F 17.5 °F 24.8 °F 86% 29.87 in 0.8 mi ESE 13.8 mph - N/A Snow Light Snow
4:13 PM 28.4 °F 17.5 °F 24.8 °F 86% 29.86 in 1.2 mi ESE 13.8 mph - N/A Snow Light Snow
4:34 PM 28.4 °F 18.0 °F 24.8 °F 86% 29.87 in 4.0 mi ESE 12.7 mph - N/A Snow Light Snow
4:53 PM 28.4 °F 17.0 °F 24.8 °F 86% 29.87 in 4.0 mi ESE 15.0 mph - N/A Snow Light Snow
5:14 PM 28.4 °F 18.0 °F 24.8 °F 86% 29.87 in 5.0 mi ESE 12.7 mph - N/A   Overcast
5:33 PM 26.6 °F 16.2 °F 24.8 °F 93% 29.89 in 7.0 mi SE 11.5 mph - N/A   Overcast
5:53 PM 26.6 °F 15.2 °F 24.8 °F 93% 29.89 in 5.0 mi ESE 13.8 mph - N/A   Overcast
6:13 PM 26.6 °F 16.2 °F 24.8 °F 93% 29.90 in 7.0 mi SE 11.5 mph - N/A   Overcast
6:33 PM 28.4 °F 18.0 °F 26.6 °F 93% 29.91 in 2.0 mi SE 12.7 mph - N/A Snow Light Snow
6:53 PM 28.4 °F 18.0 °F 26.6 °F 93% 29.92 in 2.0 mi SE 12.7 mph - N/A Snow Light Snow
7:14 PM 26.6 °F 15.2 °F 26.6 °F 100% 29.92 in 3.0 mi SE 13.8 mph 18.4 mph N/A   Overcast
7:33 PM 26.6 °F 16.2 °F 24.8 °F 93% 29.91 in 4.0 mi ESE 11.5 mph - N/A   Overcast
7:53 PM 26.6 °F 15.7 °F 24.8 °F 93% 29.92 in 5.0 mi SE 12.7 mph 18.4 mph N/A   Overcast
8:34 PM 26.6 °F 16.8 °F 24.8 °F 93% 29.92 in 4.0 mi SE 10.4 mph - N/A   Overcast
8:53 PM 26.6 °F 16.8 °F 24.8 °F 93% 29.93 in 4.0 mi SE 10.4 mph - N/A   Overcast
9:14 PM 26.6 °F 16.2 °F 24.8 °F 93% 29.93 in 4.0 mi SE 11.5 mph - N/A   Overcast
9:34 PM 26.6 °F 15.2 °F 24.8 °F 93% 29.93 in 4.0 mi SE 13.8 mph - N/A   Overcast
9:53 PM 26.6 °F 16.2 °F 24.8 °F 93% 29.92 in 3.0 mi ESE 11.5 mph - N/A   Overcast
10:13 PM 26.6 °F 16.2 °F 24.8 °F 93% 29.92 in 3.0 mi ESE 11.5 mph - N/A Snow Light Snow
10:33 PM 26.6 °F 16.8 °F 24.8 °F 93% 29.92 in 4.0 mi SE 10.4 mph 16.1 mph N/A   Overcast
10:54 PM 26.6 °F 16.8 °F 24.8 °F 93% 29.92 in 3.0 mi SE 10.4 mph - N/A   Overcast
11:13 PM 26.6 °F 16.2 °F 24.8 °F 93% 29.91 in 2.5 mi ESE 11.5 mph - N/A   Overcast
11:33 PM 26.6 °F 16.8 °F 24.8 °F 93% 29.91 in 2.5 mi ESE 10.4 mph - N/A   Overcast
11:54 PM 26.6 °F 16.8 °F 24.8 °F 93% 29.91 in 3.0 mi SE 10.4 mph - N/A   Overcast